Location: Dumpton Point
(51.3500°N, 1.4433°E)
Time: 05:54:19
(UTC+00:00)

Altair - Pass Details

Date: 07 October 2022
Orbit: 1501 x 1682 km, 47.2° (Epoch: 26 November)

Event Time Altitude Azimuth Distance (km) Brightness Sun altitude
Rises 02:51:17 0° 204° (SSW) 4,719 - -29.7°
Reaches altitude 10° 02:54:45 10° 195° (SSW) 3,765 - -29.3°
Exits shadow 02:58:15 22° 178° (S) 2,975 8.7 -28.8°
Maximum altitude 03:02:43 31° 138° (SE) 2,547 8.7 -28.2°
Drops below altitude 10° 03:10:57 10° 82° (E) 3,895 10.5 -27.1°
Sets 03:14:35 0° 72° (ENE) 4,905 11.4 -26.6°
